West Lebanon, NH

7:51 AM EDT on August 24, 2016 (GMT -0400)
Lebanon Municipal

Weather History for KLEB - July, 2012

Change the Weather History Date:

Tuesday, July 17, 2012

  Actual Average Record
Temperature  
Mean Temperature 80 °F -  
Max Temperature 96 °F 84 °F 96 °F (1953)
Min Temperature 64 °F 58 °F 42 °F (1946)
Cooling Degree Days 15    
Growing Degree Days 30 (Base 50)    
Moisture  
Dew Point 66 °F    
Average Humidity 82    
Maximum Humidity 94    
Minimum Humidity 36    
Precipitation  
Precipitation 0.53 in - - ()
Sea Level Pressure  
Sea Level Pressure 29.72 in    
Wind  
Wind Speed 3 mph (South)    
Max Wind Speed 30 mph    
Max Gust Speed 43 mph    
Visibility 6 miles    
Events Rain , Thunderstorm    
Averages and records for this station are not official NWS values.
T = Trace of Precipitation, MM = Missing Value Source: NWS Daily Summary

Daily Weather History Graph

Daily Weather History Graph

Search for Another Location

Airport or City:

Trip Planner

Search our weather history database for the weather conditions in past years. The results will help you decide how hot, cold, wet, or windy it might be!

Date:

Astronomy

Jul. 17, 2012 Rise Set
Actual Time 5:23 AM EDT 8:26 PM EDT
Civil Twilight 4:49 AM EDT 9:00 PM EDT
Nautical Twilight 4:05 AM EDT 9:44 PM EDT
Astronomical Twilight 3:12 AM EDT 10:36 PM EDT
Moon 3:58 AM EDT (7/17) 7:13 PM EDT (7/17)
Length of Visible Light 16h 11m
Length of Day
15h 02m
Waning Crescent, 2% of the Moon is Illuminated
Jul 17
Waning Crescent
Jul 19
New
Jul 26
First Quarter
Aug 1
Full
Aug 9
Last Quarter

Hourly Weather History & Observations

Time (EDT) Temp. Heat Index Dew Point Humidity Pressure Visibility Wind Dir Wind Speed Gust Speed Precip Events Conditions
12:53 AM 69.1 °F - 64.9 °F 87% 29.78 in 5.0 mi Calm Calm - N/A   Clear
1:53 AM 66.9 °F - 64.0 °F 90% 29.77 in 5.0 mi SSE 3.5 mph - N/A   Clear
2:10 AM 68.0 °F - 64.4 °F 88% 29.81 in 3.0 mi Calm Calm - N/A   Scattered Clouds
2:13 AM 66.2 °F - 64.4 °F 94% 29.81 in 2.5 mi SSE 3.5 mph - N/A   Mostly Cloudy
2:18 AM 66.2 °F - 64.4 °F 94% 29.80 in 1.8 mi SSE 3.5 mph - N/A   Mostly Cloudy
2:30 AM 66.2 °F - 64.4 °F 94% 29.81 in 3.0 mi SSE 3.5 mph - N/A   Mostly Cloudy
2:41 AM 66.2 °F - 64.4 °F 94% 29.80 in 4.0 mi Calm Calm - N/A   Mostly Cloudy
2:53 AM 68.0 °F - 64.9 °F 90% 29.77 in 5.0 mi Calm Calm - N/A   Mostly Cloudy
3:53 AM 64.9 °F - 62.1 °F 90% 29.75 in 4.0 mi Calm Calm - N/A   Clear
4:03 AM 64.4 °F - 62.6 °F 94% 29.78 in 4.0 mi Calm Calm - N/A   Scattered Clouds
4:26 AM 64.4 °F - 62.6 °F 94% 29.78 in 4.0 mi SSE 3.5 mph - N/A   Mostly Cloudy
4:42 AM 66.2 °F - 64.4 °F 94% 29.78 in 2.5 mi South 3.5 mph - N/A   Overcast
4:49 AM 66.2 °F - 64.4 °F 94% 29.78 in 4.0 mi SSE 3.5 mph - N/A   Overcast
4:53 AM 66.9 °F - 64.0 °F 90% 29.74 in 3.0 mi Calm Calm - N/A   Overcast
4:58 AM 66.2 °F - 64.4 °F 94% 29.78 in 1.8 mi Calm Calm - N/A   Overcast
5:08 AM 66.2 °F - 64.4 °F 94% 29.77 in 3.0 mi Calm Calm - N/A   Overcast
5:27 AM 64.4 °F - 62.6 °F 94% 29.77 in 2.5 mi Calm Calm - N/A   Mostly Cloudy
5:53 AM 66.0 °F - 64.0 °F 93% 29.74 in 3.0 mi Calm Calm - N/A   Overcast
6:01 AM 66.2 °F - 64.4 °F 94% 29.78 in 2.0 mi Calm Calm - N/A   Overcast
6:09 AM 66.2 °F - 64.4 °F 94% 29.78 in 1.5 mi Calm Calm - N/A   Overcast
6:18 AM 66.2 °F - 64.4 °F 94% 29.77 in 3.0 mi Calm Calm - N/A   Overcast
6:30 AM 68.0 °F - 64.4 °F 88% 29.77 in 5.0 mi Calm Calm - N/A   Mostly Cloudy
6:53 AM 69.1 °F - 64.9 °F 87% 29.75 in 5.0 mi Calm Calm - N/A   Partly Cloudy
7:03 AM 69.8 °F - 64.4 °F 83% 29.78 in 5.0 mi Calm Calm - N/A   Scattered Clouds
7:53 AM 72.0 °F - 66.9 °F 84% 29.73 in 7.0 mi Calm Calm - N/A   Partly Cloudy
8:53 AM 75.0 °F - 68.0 °F 79% 29.74 in 8.0 mi Calm Calm - N/A   Overcast
9:53 AM 75.0 °F - 66.9 °F 76% 29.72 in 9.0 mi SSW 5.8 mph - 0.00 in   Overcast
10:53 AM 77.0 °F - 66.9 °F 71% 29.70 in 10.0 mi South 4.6 mph - 0.00 in   Mostly Cloudy
11:53 AM 82.0 °F 84.1 °F 66.0 °F 58% 29.67 in 10.0 mi SSW 8.1 mph - N/A   Scattered Clouds
12:53 PM 88.0 °F 89.6 °F 64.9 °F 46% 29.63 in 10.0 mi SW 13.8 mph - N/A   Clear
1:53 PM 91.9 °F 94.1 °F 64.9 °F 41% 29.61 in 10.0 mi SW 9.2 mph - N/A   Clear
2:53 PM 93.9 °F 95.6 °F 64.0 °F 37% 29.58 in 10.0 mi SSW 12.7 mph 21.9 mph N/A   Clear
3:53 PM 96.1 °F 98.8 °F 64.9 °F 36% 29.57 in 8.0 mi WSW 16.1 mph 28.8 mph N/A   Clear
4:53 PM 93.9 °F 95.6 °F 64.0 °F 37% 29.56 in 9.0 mi WSW 11.5 mph 24.2 mph N/A   Clear
5:53 PM 91.0 °F 93.8 °F 66.0 °F 44% 29.59 in 10.0 mi SSW 8.1 mph - N/A   Clear
6:25 PM 84.2 °F 88.4 °F 69.8 °F 62% 29.67 in 2.0 mi NNW 26.5 mph 39.1 mph 0.08 in Rain , Thunderstorm Light Thunderstorms and Rain
6:29 PM 75.2 °F - 71.6 °F 89% 29.69 in 0.8 mi North 29.9 mph 42.6 mph 0.29 in Rain , Thunderstorm Heavy Thunderstorms and Rain
6:42 PM 75.2 °F - 71.6 °F 89% 29.68 in 2.5 mi Calm Calm - 0.49 in Rain , Thunderstorm Light Thunderstorms and Rain
6:49 PM 73.4 °F - 71.6 °F 94% 29.67 in 10.0 mi East 4.6 mph - 0.49 in Thunderstorm Thunderstorm
6:53 PM 75.0 °F - 71.1 °F 87% 29.64 in 10.0 mi Calm Calm - 0.49 in Thunderstorm Scattered Clouds
7:20 PM 75.2 °F - 71.6 °F 89% 29.69 in 9.0 mi Calm Calm - N/A   Partly Cloudy
7:53 PM 73.9 °F - 71.1 °F 91% 29.64 in 7.0 mi Calm Calm - 0.00 in Rain Light Rain
8:53 PM 75.0 °F - 72.0 °F 90% 29.66 in 3.0 mi SSW 3.5 mph - 0.01 in Rain Light Rain
9:53 PM 75.0 °F - 72.0 °F 90% 29.67 in 8.0 mi South 8.1 mph - 0.03 in Rain Light Rain
10:16 PM 73.4 °F - 71.6 °F 94% 29.71 in 7.0 mi Variable 3.5 mph - 0.00 in Rain , Thunderstorm Light Rain
10:31 PM 73.4 °F - 71.6 °F 94% 29.69 in 8.0 mi Calm Calm - 0.00 in Rain Light Rain
10:53 PM 73.0 °F - 70.0 °F 90% 29.67 in 7.0 mi Variable 3.5 mph - 0.00 in   Mostly Cloudy
11:53 PM 73.0 °F - 70.0 °F 90% 29.69 in 7.0 mi Calm Calm - N/A Thunderstorm Thunderstorm